Location: Baia Mare
(47.6567°N, 23.5850°E)
Time: 14:54:38
(UTC+02:00)

ISS - Pass Details

Date: 04 February 2019
Orbit: 406 x 411 km, 51.6° (Epoch: 22 March)

Event Time Altitude Azimuth Distance (km) Brightness Sun altitude
Rises 18:39:57 0° 291° (WNW) 2,349 1.1 -11.9°
Reaches altitude 10° 18:42:05 10° 296° (WNW) 1,487 -0.1 -12.3°
Maximum altitude 18:45:22 55° 16° (NNE) 502 -3.6 -12.8°
Enters shadow 18:47:06 24° 86° (E) 895 -2.7 -13.1°
